{"data":{"norad_id":67460,"epoch":"2026-05-25T00:39:10.702080Z","epoch_age_seconds":66496,"freshness":"FRESH","line1":"1 67460U 26008R   26145.02720720  .00023244  00000+0  85081-3 0  9996","line2":"2 67460  43.0043 134.4077 0002307 285.4815  74.5782 15.27606773 21246","mean_motion":15.27606773,"eccentricity":0.0002307,"inclination_deg":43.0043,"raan_deg":134.4077,"arg_perigee_deg":285.4815,"mean_anomaly_deg":74.5782,"bstar":0.00085081,"rev_number":2124,"period_min":94.265096584512,"perigee_km":481.38607207911,"apogee_km":484.55178635485,"semimajor_km":6861.105929217,"source":"CELESTRAK","updated_at":"2026-05-25T13:38:21.562584Z"}}